• Join FlightAware (Why Join?)
  • Login
  • US Flag 
05:06PM EST


 

Airport Tracker/Info


-or-


 

Live Flight TrackerFlight Track Log ✈ AZU4316 ✈ 21-Oct-2013 ✈ SBKP / VCP - SBSR / SJP

Flight Track Log - Related Links

Times and Time Zones

All times are in EDT time to prevent confusion due to time zone crossing. See the AZU4316 flight status page for this flight to view local times or setup timezone preferences in your user account.

Time Position Orientation Groundspeed Altitude Reporting Facility
EDT Latitude Longitude Course Direction KTS MPH feet Rate Location/Type
05:14PM -23.0170 -47.1900 236° Southwest 185 213 3,400  Level FlightAware
05:14PM -23.0300 -47.2110 236° Southwest 185 213 3,800 800 Climbing FlightAware
05:14PM -23.0360 -47.2280 249° West 192 221 4,000 686 Climbing FlightAware
05:15PM -23.0410 -47.2420 249° West 197 227 4,200 857 Climbing FlightAware
05:15PM -23.0470 -47.2610 251° West 199 229 4,500 750 Climbing FlightAware
05:15PM -23.0520 -47.2790 253° West 201 231 4,700 600 Climbing FlightAware
05:16PM -23.0580 -47.2990 252° West 204 235 4,900 686 Climbing FlightAware
05:16PM -23.0620 -47.3130 253° West 203 234 5,100 857 Climbing FlightAware
05:16PM -23.0680 -47.3330 252° West 203 234 5,400 900 Climbing FlightAware
05:16PM -23.0740 -47.3530 252° West 205 236 5,700 625 Climbing FlightAware
05:17PM -23.0790 -47.3690 251° West 205 236 5,900 558 Climbing FlightAware
05:17PM -23.0830 -47.3820 252° West 206 237 6,100 811 Climbing FlightAware
05:18PM -23.0890 -47.4050 254° West 206 237 6,400 769 Climbing FlightAware
05:18PM -23.0940 -47.4240 254° West 207 238 6,600 727 Climbing FlightAware
05:18PM -23.0980 -47.4390 254° West 205 236 6,800 857 Climbing FlightAware
05:18PM -23.1030 -47.4550 251° West 203 234 7,000 857 Climbing FlightAware
05:19PM -23.1090 -47.4740 251° West 201 231 7,300 913 Climbing FlightAware
05:19PM -23.1150 -47.4950 253° West 198 228 7,700 1,077 Climbing FlightAware
05:19PM -23.1200 -47.5140 254° West 196 226 8,000 833 Climbing FlightAware
05:20PM -23.1250 -47.5290 250° West 195 224 8,200 857 Climbing FlightAware
05:20PM -23.1310 -47.5520 254° West 193 222 8,600 923 Climbing FlightAware
05:20PM -23.1350 -47.5660 253° West 193 222 8,800 727 Climbing FlightAware
05:21PM -23.1400 -47.5830 252° West 190 219 9,000 714 Climbing FlightAware
05:21PM -23.1340 -47.6020 289° West 186 214 9,300 714 Climbing FlightAware
05:21PM -23.1230 -47.6120 320° Northwest 186 214 9,500 727 Climbing FlightAware
05:22PM -23.1110 -47.6210 325° Northwest 186 214 9,700 857 Climbing FlightAware
05:22PM -23.0750 -47.6490 324° Northwest 189 217 10,300 800 Climbing FlightAware
05:23PM -23.0490 -47.6700 323° Northwest 191 220 10,700 649 Climbing FlightAware
05:23PM -23.0230 -47.6900 325° Northwest 190 219 11,100 771 Climbing FlightAware
05:24PM -22.9990 -47.7090 324° Northwest 189 217 11,600 794 Climbing FlightAware
05:25PM -22.9740 -47.7290 324° Northwest 187 215 12,000 711 Climbing FlightAware
05:25PM -22.9460 -47.7520 323° Northwest 188 216 12,500 375 Climbing FlightAware
05:26PM -22.9220 -47.7710 324° Northwest 188 216 12,500 568 Level FlightAware
05:26PM -22.9020 -47.7860 325° Northwest 188 216 13,200 1,000 Climbing FlightAware
05:27PM -22.8660 -47.8150 323° Northwest 192 221 13,700 761 Climbing FlightAware
05:28PM -22.8430 -47.8330 324° Northwest 193 222 14,100 575 Climbing FlightAware
05:28PM -22.8130 -47.8560 325° Northwest 192 221 14,400 568 Climbing FlightAware
05:29PM -22.7900 -47.8750 323° Northwest 193 222 14,800 553 Climbing FlightAware
05:30PM -22.7570 -47.9000 325° Northwest 196 226 15,100 474 Climbing FlightAware
05:30PM -22.7330 -47.9190 324° Northwest 200 230 15,400 441 Climbing FlightAware
05:31PM -22.7080 -47.9390 324° Northwest 201 231 15,600 429 Climbing FlightAware
05:31PM -22.6790 -47.9620 324° Northwest 204 235 15,900 583 Climbing FlightAware
05:32PM -22.6510 -47.9840 324° Northwest 205 236 16,300 583 Climbing FlightAware
05:33PM -22.6220 -48.0060 325° Northwest 206 237 16,600 423 Climbing FlightAware
05:33PM -22.5960 -48.0270 323° Northwest 207 238 16,800 448 Climbing FlightAware
05:34PM -22.5720 -48.0460 324° Northwest 206 237 17,100 514 Climbing FlightAware
05:34PM -22.5400 -48.0710 324° Northwest 206 237 17,400 405 Climbing FlightAware
05:35PM -22.5140 -48.0920 323° Northwest 209 241 17,600 333 Climbing FlightAware
05:35PM -22.4850 -48.1140 325° Northwest 210 242 17,800 343 Climbing FlightAware
05:36PM -22.4580 -48.1360 323° Northwest 211 243 18,000 171 Climbing FlightAware
05:37PM -22.4290 -48.1590 324° Northwest 219 252 18,000  Level FlightAware
05:37PM -22.4010 -48.1800 325° Northwest 229 264 18,000  Level FlightAware
05:38PM -22.3670 -48.2060 325° Northwest 232 267 18,000  Level FlightAware
05:38PM -22.3400 -48.2280 323° Northwest 236 272 18,000  Level FlightAware
05:39PM -22.3080 -48.2530 324° Northwest 240 276 18,000  Level FlightAware
05:40PM -22.2750 -48.2790 324° Northwest 242 278 18,000  Level FlightAware
05:40PM -22.2450 -48.3020 325° Northwest 243 280 18,000  Level FlightAware
05:41PM -22.2150 -48.3260 323° Northwest 244 281 18,000  Level FlightAware
05:41PM -22.1830 -48.3500 325° Northwest 244 281 18,000  Level FlightAware
05:42PM -22.1460 -48.3790 324° Northwest 247 284 18,000  Level FlightAware
05:42PM -22.1150 -48.4030 324° Northwest 245 282 18,000  Level FlightAware
05:43PM -22.0830 -48.4290 323° Northwest 245 282 18,000  Level FlightAware
05:44PM -22.0500 -48.4540 325° Northwest 245 282 18,000  Level FlightAware
05:44PM -22.0210 -48.4770 324° Northwest 244 281 18,000  Level FlightAware
05:45PM -21.9880 -48.5030 324° Northwest 243 280 18,000  Level FlightAware
05:45PM -21.9540 -48.5280 326° Northwest 244 281 18,000  Level FlightAware
05:46PM -21.9210 -48.5540 324° Northwest 244 281 18,000  Level FlightAware
05:47PM -21.8880 -48.5800 324° Northwest 242 278 18,000  Level FlightAware
05:47PM -21.8590 -48.6030 324° Northwest 243 280 18,000  Level FlightAware
05:48PM -21.8250 -48.6290 325° Northwest 242 278 18,000  Level FlightAware
05:48PM -21.7930 -48.6540 324° Northwest 243 280 18,000  Level FlightAware
05:49PM -21.7600 -48.6790 325° Northwest 243 280 18,000  Level FlightAware
05:49PM -21.7300 -48.7020 325° Northwest 243 280 18,000  Level FlightAware
05:50PM -21.6970 -48.7280 324° Northwest 241 277 18,000  Level FlightAware
05:51PM -21.6630 -48.7550 324° Northwest 242 278 18,000  Level FlightAware
05:51PM -21.6340 -48.7770 325° Northwest 242 278 18,000  Level FlightAware
05:52PM -21.6000 -48.8030 325° Northwest 242 278 18,000  Level FlightAware
05:52PM -21.5680 -48.8280 324° Northwest 242 278 18,000  Level FlightAware
05:53PM -21.5340 -48.8530 326° Northwest 242 278 18,000  Level FlightAware
05:54PM -21.5050 -48.8760 324° Northwest 242 278 18,000  Level FlightAware
05:54PM -21.4720 -48.9010 325° Northwest 242 278 18,000  Level FlightAware
05:55PM -21.4430 -48.9240 324° Northwest 242 278 18,000  Level FlightAware
05:55PM -21.4120 -48.9510 321° Northwest 244 281 18,000  Level FlightAware
05:56PM -21.3850 -48.9880 308° West 244 281 18,000  Level FlightAware
05:56PM -21.3630 -49.0190 307° West 244 281 18,000  Level FlightAware
05:57PM -21.3380 -49.0550 307° West 244 281 18,000  Level FlightAware
05:58PM -21.3140 -49.0890 307° West 245 282 18,000 -667 Level FlightAware
05:58PM -21.2870 -49.1260 308° West 275 316 17,200 -1,545 Descending FlightAware
05:59PM -21.2630 -49.1600 307° West 296 341 16,300 -1,950 Descending FlightAware
06:00PM -21.2210 -49.2190 307° West 292 336 14,600 -2,000 Descending FlightAware
06:00PM -21.1990 -49.2500 307° West 284 327 13,700 -2,063 Descending FlightAware
06:01PM -21.1710 -49.2910 306° West 277 319 12,400 -2,057 Descending FlightAware
06:01PM -21.1450 -49.3280 307° West 272 313 11,300 -1,853 Descending FlightAware
06:02PM -21.1190 -49.3640 308° West 269 310 10,300 -1,789 Descending FlightAware
06:02PM -21.1020 -49.3870 308° West 271 312 9,600 -1,909 Descending FlightAware
06:02PM -21.0850 -49.4110 307° West 270 311 8,900 -1,902 Descending FlightAware
06:03PM -21.0700 -49.4320 307° West 266 306 8,300 -1,765 Descending FlightAware
06:03PM -21.0500 -49.4600 307° West 264 304 7,400 -1,636 Descending FlightAware
06:04PM -21.0350 -49.4810 307° West 264 304 6,800 -720 Descending FlightAware
06:04PM -21.0190 -49.5040 307° West 264 304 6,800 -1,065 Level FlightAware
06:06PM -20.8910 -49.5060 24° Northeast 3,500 -1,238 Descending FlightAware
06:07PM -20.9204 -49.4565 24° Northeast  Level Estimated
06:07PM -20.8810 -49.4930 51° Northeast 152 175 3,500  Level FlightAware
06:07PM -20.8740 -49.4820 56° Northeast 147 169 3,400 -462 Descending FlightAware
06:07PM -20.8660 -49.4720 49° Northeast 124 143 3,200 -600 Descending FlightAware
06:08PM -20.8590 -49.4630 50° Northeast 119 137 3,000 -750 Descending FlightAware
06:08PM -20.8500 -49.4510 51° Northeast 115 132 2,700 -625 Descending FlightAware
06:09PM -20.8430 -49.4420 50° Northeast 113 130 2,500 -571 Descending FlightAware
06:09PM -20.8380 -49.4350 53° Northeast 112 129 2,300 -563 Descending FlightAware
06:09PM -20.8320 -49.4270 51° Northeast 112 129 2,200 -632 Descending FlightAware
06:09PM -20.8250 -49.4170 53° Northeast 113 130 1,900 -563 Descending FlightAware
06:10PM -20.8220 -49.4130 51° Northeast 114 131 1,900  Level FlightAware
06:10PM -20.8170 -49.4070 48° Northeast 106 122 -7,125 Descending FlightAware
06:10PM -20.8140 -49.4030 51° Northeast 106 122  Level FlightAware
06:11PM -20.8210 -49.3930 127° Southeast 106 122  Level FlightAware
06:11PM -20.8130 -49.4030 311° West 106 122  Level FlightAware
06:11PM -20.8030 -49.4050 349° North 106 122  Level FlightAware
06:14PM -20.8166 -49.4065 186° South  Level Estimated
06:15PM -20.8166 -49.4065 343° North  Level Estimated
06:16PM -20.8166 -49.4065 343° North  Level Estimated
06:17PM -20.8166 -49.4065 343° North  Level Estimated
06:18PM -20.8166 -49.4065 343° North  Level Estimated
06:19PM -20.8166 -49.4065 343° North  Level Estimated
06:20PM -20.8166 -49.4065 343° North  Level Estimated
06:21PM -20.8166 -49.4065 343° North  Level Estimated
06:22PM -20.8166 -49.4065 343° North  Level Estimated
06:23PM -20.8166 -49.4065 343° North  Level Estimated
06:24PM -20.8166 -49.4065 343° North  Level Estimated
06:25PM -20.8166 -49.4065 343° North  Level Estimated
06:26PM -20.8166 -49.4065 343° North  Level Estimated
06:27PM -20.8166 -49.4065 343° North  Level Estimated
06:28PM -20.8166 -49.4065 343° North  Level Estimated
06:29PM -20.8166 -49.4065 343° North  Level Estimated
06:30PM -20.8166 -49.4065 343° North  Level Estimated
06:31PM -20.8166 -49.4065 343° North  Level Estimated
06:32PM -20.8166 -49.4065 343° North  Level Estimated
06:33PM -20.8166 -49.4065 343° North  Level Estimated
06:34PM -20.8166 -49.4065 343° North  Level Estimated
06:35PM -20.8166 -49.4065 343° North  Level Estimated
06:36PM -20.8166 -49.4065 343° North  Level Estimated